Terminal Aerodrome Forecast
Issued by NWS Grand Junction, CO

Home | Current Version | Previous Version | Text Only | Print | Product List | Glossary On
Versions: 1 2 3 4 5 6 7 8 9 10 11 12 13 14 15 16 17 18 19 20 21 22 23 24
000
FTUS45 KGJT 191734
TAFGJT
TAF
KGJT 191734Z 1918/2018 19006KT P6SM FEW110 FEW200
     FM192000 30007KT P6SM FEW110 SCT200
     FM200200 04005KT P6SM FEW150
     FM200700 11007KT P6SM FEW150
     FM201400 13010KT P6SM FEW150 SCT250=

USA.gov is the U.S. government's official web portal to all federal, state and local government web resources and services.